Time,TemperatureF,DewpointF,PressureIn,WindDirection,WindDirectionDegrees,WindSpeedMPH,WindSpeedGustMPH,Humidity,HourlyPrecipIn,Conditions,Clouds,dailyrainin,SoftwareType,DateUTC
2013-12-21 00:12:00,56.0,53.0,29.85,North,0,0.0,0.0,89,0.00,,,0.12,,2013-12-21 05:12:00,
2013-12-21 00:22:00,56.0,53.0,29.85,North,0,0.0,0.0,89,0.00,,,0.12,,2013-12-21 05:22:00,
2013-12-21 00:42:00,56.0,53.0,29.83,North,0,0.0,0.0,89,0.00,,,0.12,,2013-12-21 05:42:00,
2013-12-21 00:52:00,56.0,53.0,29.83,North,0,0.0,0.0,89,0.00,,,0.12,,2013-12-21 05:52:00,
2013-12-21 01:22:00,57.0,53.0,29.83,North,0,0.0,0.0,88,0.00,,,0.12,,2013-12-21 06:22:00,
2013-12-21 01:52:00,57.0,53.0,29.82,North,0,0.0,0.0,88,0.00,,,0.12,,2013-12-21 06:52:00,
2013-12-21 02:22:00,57.0,53.0,29.83,North,0,0.0,0.0,87,0.00,,,0.12,,2013-12-21 07:22:00,
2013-12-21 02:42:00,57.0,53.0,29.82,North,0,0.0,0.0,87,0.00,,,0.12,,2013-12-21 07:42:00,
2013-12-21 02:53:00,57.0,53.0,29.82,North,0,0.0,0.0,87,0.00,,,0.12,,2013-12-21 07:53:00,
2013-12-21 03:22:00,57.0,53.0,29.82,North,0,0.0,0.0,87,0.00,,,0.12,,2013-12-21 08:22:00,
2013-12-21 03:42:00,57.0,53.0,29.82,North,0,0.0,0.0,86,0.00,,,0.12,,2013-12-21 08:42:00,
2013-12-21 03:53:00,57.0,53.0,29.82,North,0,0.0,0.0,86,0.00,,,0.12,,2013-12-21 08:53:00,
2013-12-21 04:22:00,56.0,52.0,29.80,North,0,0.0,0.0,88,0.04,,,0.16,,2013-12-21 09:22:00,
2013-12-21 04:54:00,56.0,53.0,29.80,North,0,0.0,0.0,89,0.04,,,0.16,,2013-12-21 09:54:00,
2013-12-21 05:12:00,56.0,53.0,29.79,North,0,0.0,0.0,89,0.00,,,0.16,,2013-12-21 10:12:00,
2013-12-21 05:23:00,56.0,53.0,29.79,North,0,0.0,0.0,89,0.00,,,0.16,,2013-12-21 10:23:00,
2013-12-21 05:33:00,56.0,53.0,29.79,North,0,0.0,0.0,89,0.00,,,0.16,,2013-12-21 10:33:00,
2013-12-21 05:53:00,56.0,53.0,29.80,North,0,0.0,0.0,90,0.06,,,0.22,,2013-12-21 10:53:00,
2013-12-21 06:12:00,56.0,53.0,29.80,North,0,0.0,0.0,91,0.22,,,0.39,,2013-12-21 11:12:00,
2013-12-21 06:23:00,56.0,53.0,29.80,North,0,0.0,0.0,91,0.22,,,0.39,,2013-12-21 11:23:00,
2013-12-21 06:53:00,55.0,53.0,29.80,North,0,0.0,0.0,93,0.24,,,0.47,,2013-12-21 11:53:00,
2013-12-21 07:12:00,55.0,53.0,29.80,North,0,0.0,0.0,93,0.12,,,0.51,,2013-12-21 12:12:00,
2013-12-21 07:22:00,55.0,53.0,29.80,North,0,0.0,0.0,93,0.12,,,0.51,,2013-12-21 12:22:00,
2013-12-21 07:52:00,56.0,54.0,29.80,North,0,0.0,0.0,94,0.06,,,0.49,,2013-12-21 12:52:00,
2013-12-21 08:12:00,56.0,54.0,29.80,North,0,0.0,0.0,94,0.04,,,0.45,,2013-12-21 13:12:00,
2013-12-21 08:22:00,56.0,54.0,29.80,North,0,0.0,0.0,94,0.04,,,0.45,,2013-12-21 13:22:00,
2013-12-21 08:52:00,56.0,54.0,29.79,North,0,0.0,0.0,94,0.06,,,0.51,,2013-12-21 13:52:00,
2013-12-21 09:12:00,56.0,54.0,29.78,North,0,0.0,0.0,94,0.08,,,0.53,,2013-12-21 14:12:00,
2013-12-21 09:22:00,56.0,54.0,29.78,North,0,0.0,0.0,94,0.08,,,0.53,,2013-12-21 14:22:00,
2013-12-21 09:53:00,56.0,55.0,29.78,North,0,0.0,0.0,95,0.06,,,0.57,,2013-12-21 14:53:00,
2013-12-21 10:12:00,56.0,55.0,29.79,North,0,0.0,0.0,95,0.06,,,0.57,,2013-12-21 15:12:00,
2013-12-21 10:22:00,56.0,55.0,29.79,North,0,0.0,0.0,95,0.06,,,0.57,,2013-12-21 15:22:00,
2013-12-21 10:53:00,57.0,56.0,29.79,North,0,0.0,0.0,95,0.10,,,0.65,,2013-12-21 15:53:00,
2013-12-21 11:23:00,58.0,57.0,29.80,North,0,0.0,0.0,95,0.08,,,0.67,,2013-12-21 16:23:00,
2013-12-21 11:53:00,58.0,57.0,29.78,North,0,0.0,0.0,95,0.04,,,0.69,,2013-12-21 16:53:00,
2013-12-21 12:22:00,58.0,57.0,29.77,North,0,0.0,0.0,95,0.06,,,0.73,,2013-12-21 17:22:00,
2013-12-21 12:53:00,58.0,57.0,29.74,North,0,0.0,0.0,95,0.10,,,0.80,,2013-12-21 17:53:00,
2013-12-21 13:12:00,58.0,57.0,29.72,North,0,0.0,0.0,95,0.08,,,0.80,,2013-12-21 18:12:00,
2013-12-21 13:23:00,58.0,57.0,29.72,North,0,0.0,0.0,95,0.08,,,0.80,,2013-12-21 18:23:00,
2013-12-21 13:42:00,58.0,57.0,29.72,North,0,0.0,0.0,95,0.04,,,0.82,,2013-12-21 18:42:00,
2013-12-21 13:52:00,58.0,57.0,29.72,North,0,0.0,0.0,95,0.04,,,0.82,,2013-12-21 18:52:00,
2013-12-21 14:11:00,58.0,56.0,29.72,North,0,0.0,0.0,94,0.04,,,0.84,,2013-12-21 19:11:00,
2013-12-21 14:22:00,58.0,56.0,29.72,North,0,0.0,0.0,94,0.04,,,0.84,,2013-12-21 19:22:00,
2013-12-21 14:52:00,58.0,57.0,29.70,North,0,0.0,0.0,95,0.14,,,0.98,,2013-12-21 19:52:00,
2013-12-21 15:23:00,58.0,57.0,29.70,North,0,0.0,0.0,95,0.06,,,0.96,,2013-12-21 20:23:00,
2013-12-21 15:52:00,59.0,57.0,29.72,North,0,0.0,0.0,94,0.00,,,0.96,,2013-12-21 20:52:00,
2013-12-21 16:22:00,59.0,57.0,29.70,North,0,0.0,0.0,93,0.00,,,0.96,,2013-12-21 21:22:00,
2013-12-21 16:53:00,60.0,58.0,29.70,North,0,0.0,0.0,93,0.00,,,0.96,,2013-12-21 21:53:00,
2013-12-21 17:03:00,60.0,58.0,29.70,North,0,0.0,0.0,93,0.00,,,0.96,,2013-12-21 22:03:00,
2013-12-21 17:23:00,60.0,58.0,29.70,North,0,0.0,0.0,93,0.00,,,0.96,,2013-12-21 22:23:00,
2013-12-21 17:33:00,60.0,58.0,29.70,North,0,0.0,0.0,93,0.00,,,0.96,,2013-12-21 22:33:00,
2013-12-21 17:42:00,60.0,58.0,29.70,North,0,0.0,0.0,93,0.00,,,0.96,,2013-12-21 22:42:00,
2013-12-21 17:53:00,60.0,58.0,29.70,North,0,0.0,0.0,93,0.00,,,0.96,,2013-12-21 22:53:00,
2013-12-21 18:22:00,60.0,58.0,29.72,North,0,0.0,0.0,93,0.00,,,0.96,,2013-12-21 23:22:00,
2013-12-21 18:53:00,61.0,59.0,29.70,North,0,0.0,0.0,93,0.00,,,0.96,,2013-12-21 23:53:00,
2013-12-21 19:12:00,62.0,60.0,29.70,North,0,0.0,0.0,93,0.00,,,0.96,,2013-12-22 00:12:00,
2013-12-21 19:22:00,62.0,60.0,29.70,North,0,0.0,0.0,93,0.00,,,0.96,,2013-12-22 00:22:00,
2013-12-21 19:52:00,61.0,59.0,29.70,North,0,0.0,0.0,93,0.00,,,0.00,,2013-12-22 00:52:00,
2013-12-21 20:12:00,61.0,59.0,29.70,North,0,0.0,0.0,94,0.00,,,0.00,,2013-12-22 01:12:00,
2013-12-21 20:22:00,61.0,59.0,29.70,North,0,0.0,0.0,94,0.00,,,0.00,,2013-12-22 01:22:00,
2013-12-21 20:42:00,62.0,61.0,29.67,North,0,0.0,0.0,95,0.04,,,0.00,,2013-12-22 01:42:00,
2013-12-21 20:52:00,62.0,61.0,29.67,North,0,0.0,0.0,95,0.04,,,0.00,,2013-12-22 01:52:00,
2013-12-21 21:12:00,62.0,61.0,29.66,North,0,0.0,0.0,95,0.00,,,0.00,,2013-12-22 02:12:00,
2013-12-21 21:22:00,62.0,61.0,29.66,North,0,0.0,0.0,95,0.00,,,0.00,,2013-12-22 02:22:00,
2013-12-21 21:52:00,62.0,61.0,29.61,North,0,0.0,0.0,95,0.12,,,0.00,,2013-12-22 02:52:00,
2013-12-21 22:11:00,62.0,61.0,29.59,North,0,0.0,0.0,95,0.08,,,0.00,,2013-12-22 03:11:00,
2013-12-21 22:22:00,62.0,61.0,29.59,North,0,0.0,0.0,95,0.08,,,0.00,,2013-12-22 03:22:00,
2013-12-21 22:43:00,63.0,61.0,29.54,North,0,0.0,0.0,92,0.00,,,0.00,,2013-12-22 03:43:00,
2013-12-21 22:54:00,63.0,61.0,29.54,North,0,0.0,0.0,92,0.00,,,0.00,,2013-12-22 03:54:00,
2013-12-21 23:03:00,-999.0,-99.9,29.53,North,0,0.0,0.0,-999,0.00,,,-99.99,,2013-12-22 04:03:00,
2013-12-21 23:20:00,65.0,60.0,29.51,North,0,0.0,0.0,85,0.00,,,0.00,,2013-12-22 04:20:00,
2013-12-21 23:23:00,64.0,60.0,29.53,North,0,0.0,0.0,88,0.00,,,0.00,,2013-12-22 04:23:00,
2013-12-21 23:43:00,65.0,60.0,29.51,North,0,0.0,0.0,85,0.00,,,0.00,,2013-12-22 04:43:00,
2013-12-21 23:53:00,65.0,60.0,29.51,North,0,0.0,0.0,85,0.00,,,0.00,,2013-12-22 04:53:00,